{"data":{"norad_id":55351,"intl_designator":"2023-013W","name":"STARLINK-5659","alt_names":[],"object_type":"PAYLOAD","status":"ACTIVE","operator":null,"country":"US","launch_date":"2023-01-26","launch_site_code":"AFETR","launch_vehicle":null,"mission":null,"orbit_class":"UNKNOWN","rcs_meters":null,"size_class":null,"mass_kg":null,"dimensions":null,"purposes":["comms"],"wikipedia_slug":null,"has_3d_model":false,"image_url":null,"decayed_at":null,"tle_current":{"epoch":"2026-09-20T09:30:48.819168Z","epoch_age_seconds":105658,"freshness":"FRESH","line1":"1 55351U 23013W   26263.39639837 -.00000012  00000+0  90807-5 0  9997","line2":"2 55351  43.0027 283.6019 0001385 256.8098 103.2599 15.27575365201458","mean_motion":15.27575365,"eccentricity":0.0001385,"inclination_deg":43.0027,"raan_deg":283.6019,"arg_perigee_deg":256.8098,"mean_anomaly_deg":103.2599,"bstar":9.0807e-6,"rev_number":20145,"period_min":94.267034739723,"perigee_km":482.11269873565,"apogee_km":484.01325112871,"semimajor_km":6861.1999749322,"source":"CELESTRAK","updated_at":"2026-09-21T09:00:33.182999Z"}}}